CAPE
0 0 0 0 0 0 0 0 0 0 0 0 0 0 0 0 0 0 0 0 0 0 0 0 0 0 0 0 0 0 0 0 0 0 2 1 1 9 4 0 0 0 0 0
0 0 0 0 0 0 0 0 0 0 0 0 0 0 0 0 0 0 0 0 0 0 0 0 0 0 0 0 0 0 0 0 0 0 0 2 2 6 12 0 0 0 0 0
0 0 0 0 0 0 0 0 0 0 0 0 0 0 0 0 0 0 0 0 0 0 0 0 0 0 0 0 0 0 0 0 0 0 0 1 2 2 5 1 0 0 0 1
0 0 0 0 0 0 0 0 0 0 0 0 0 0 0 0 0 0 0 0 0 0 0 0 0 0 0 0 0 0 0 0 0 0 0 0 1 2 3 0 0 0 0 0
0 0 0 0 0 0 0 0 0 0 0 0 0 0 0 0 0 0 0 0 0 0 0 0 0 0 0 0 0 0 0 0 0 0 0 0 0 1 1 1 0 0 0 0
0 0 0 0 0 0 0 0 0 0 0 0 0 0 0 0 0 0 0 0 0 0 0 0 0 0 0 0 0 0 0 0 0 0 0 0 1 0 1 1 1 1 0 0
0 0 0 0 0 0 0 0 0 0 0 0 0 0 0 0 0 0 0 0 0 0 0 0 0 0 0 0 0 0 0 0 0 0 0 0 0 0 1 0 1 1 0 1
0 0 0 0 0 0 0 0 0 0 0 0 0 0 0 0 0 0 0 0 0 0 0 0 0 0 1 1 0 0 0 0 0 0 0 0 0 0 0 0 1 1 1 0
0 0 0 0 0 0 0 0 0 0 0 0 0 0 0 0 0 0 0 0 0 0 0 0 0 0 1 0 0 0 0 0 0 0 0 0 0 0 1 1 0 0 1 0
0 0 0 0 0 0 0 0 0 0 0 0 0 0 0 0 0 0 0 0 0 0 0 0 0 0 0 0 0 1 0 0 0 1 0 1 0 0 1 2 0 0 0 0
0 0 0 0 0 0 0 0 0 0 0 0 0 0 0 0 0 0 0 0 0 0 0 0 0 0 0 0 0 1 0 0 0 1 2 2 1 0 0 1 1 0 0 0
0 0 0 0 0 0 0 0 0 0 0 0 0 0 0 0 0 0 0 0 0 0 0 0 0 0 0 0 0 0 0 2 1 1 1 3 3 1 0 1 0 0 0 1
0 0 0 0 0 0 0 0 0 0 0 0 0 0 0 0 0 0 0 0 0 0 0 0 0 0 0 0 0 1 1 1 1 1 1 1 2 1 2 0 0 0 0 0
0 0 0 0 0 0 0 0 0 0 0 0 0 0 0 0 0 0 0 0 0 0 0 0 0 0 0 0 0 0 0 0 0 1 1 2 3 3 1 1 0 0 1 1
0 0 0 0 0 0 0 0 0 0 0 0 0 0 0 0 0 0 0 0 0 0 0 0 0 0 0 0 0 0 0 0 0 0 0 1 1 1 1 0 0 0 0 1
0 0 0 0 0 0 0 0 0 0 0 0 0 0 0 0 0 0 0 0 0 0 0 0 0 0 0 0 0 0 0 0 1 0 0 0 0 0 0 0 0 0 0 1
0 0 0 0 0 0 0 0 0 0 0 0 0 0 0 0 0 0 0 0 0 0 0 0 0 0 0 0 0 0 0 0 0 0 0 0 0 0 1 0 0 0 0 1
0 0 0 0 0 0 0 0 0 0 0 0 0 0 0 0 0 0 0 0 0 0 0 0 0 0 0 0 0 0 0 0 0 0 0 0 0 0 0 0 0 0 0 0
0 0 0 0 0 0 0 0 0 0 0 0 0 0 0 0 0 0 0 0 0 0 0 0 0 0 0 0 0 0 0 0 0 0 0 0 0 0 0 0 0 0 0 0
0 0 0 0 0 0 0 0 0 0 0 0 0 0 0 0 0 0 0 0 0 0 0 0 0 0 0 0 0 0 0 0 0 0 0 0 0 0 0 0 0 0 0 0
0 0 0 0 0 0 0 0 0 0 0 0 0 0 0 0 0 0 0 0 0 0 0 0 0 0 0 0 0 0 0 0 0 0 0 0 0 0 0 0 0 0 0 0
0 0 0 0 0 0 0 0 0 0 0 0 0 0 0 0 0 0 0 0 0 0 0 0 0 0 3 0 0 0 0 0 0 0 0 0 0 0 0 0 0 0 0 0
0 0 0 0 0 0 0 0 0 0 0 0 0 0 0 0 0 0 0 0 0 0 1 0 0 4 6 0 0 0 0 0 0 0 0 0 0 0 0 0 0 0 0 0
0 0 0 0 0 0 0 0 0 0 0 0 0 0 0 0 0 0 0 0 0 0 1 0 0 4 0 0 0 0 0 0 0 0 0 0 0 0 0 0 0 0 0 0
0 0 0 0 0 0 0 0 0 0 0 0 0 0 0 0 0 0 0 0 0 1 0 0 5 1 0 0 0 0 0 0 0 0 0 0 0 0 0 0 0 0 0 0
0 0 0 0 0 0 0 0 0 0 0 0 0 0 0 0 0 0 0 0 0 0 0 0 0 0 0 0 0 0 0 0 0 0 0 0 0 0 0 0 0 0 0 0
0 0 0 0 0 0 0 0 0 0 0 0 0 0 0 0 0 0 0 0 0 0 0 0 0 0 0 0 0 0 0 0 0 0 0 0 0 0 0 0 0 0 0 0
CIN
-0 -0 -0 -0 -0 -0 -0 -0 -0 -0 -0 -0 -0 -0 -0 -0 -0 -0 -0 -0 -0 -0 -0 -0 -0 -0 -0 -0 -0 -0 -0 -0 -0 -0 -0 -0 -44 -16 -20 -0 -0 -0 -0 -0
-0 -0 -0 -0 -0 -0 -0 -0 -0 -0 -0 -0 -0 -0 -0 -0 -0 -0 -0 -0 -0 -0 -0 -0 -0 -0 -0 -0 -0 -0 -0 -0 -0 -0 -0 -0 -0 -28 -24 -24 -0 -0 -0 -0
-0 -0 -0 -0 -0 -0 -0 -0 -0 -0 -0 -0 -0 -0 -0 -0 -0 -0 -0 -0 -0 -0 -0 -0 -0 -0 -0 -0 -0 -0 -0 -0 -0 -0 -0 -0 -0 -0 -38 -26 -0 -0 -0 -0
-0 -0 -0 -0 -0 -0 -0 -0 -0 -0 -0 -0 -0 -0 -0 -0 -0 -0 -0 -0 -0 -0 -0 -0 -0 -0 -0 -0 -0 -0 -0 -0 -0 -0 -0 -0 -0 -0 -44 -0 -0 -0 -0 -0
-0 -0 -0 -0 -0 -0 -0 -0 -0 -0 -0 -0 -0 -0 -0 -0 -0 -0 -0 -0 -0 -0 -0 -0 -0 -0 -0 -0 -0 -0 -0 -0 -0 -0 -0 -0 -0 -0 -0 -0 -0 -0 -0 -0
-0 -0 -0 -0 -0 -0 -0 -0 -0 -0 -0 -0 -0 -0 -0 -0 -0 -0 -0 -0 -0 -0 -0 -0 -0 -0 -0 -0 -0 -0 -0 -0 -0 -0 -0 -0 -0 -0 -0 -0 -0 -0 -0 -0
-0 -0 -0 -0 -0 -0 -0 -0 -0 -0 -0 -0 -0 -0 -0 -0 -0 -0 -0 -0 -0 -0 -0 -0 -0 -0 -0 -0 -0 -0 -0 -0 -0 -0 -0 -0 -0 -0 -0 -0 -0 -0 -0 -0
-0 -0 -0 -0 -0 -0 -0 -0 -0 -0 -0 -0 -0 -0 -0 -0 -0 -0 -0 -0 -0 -0 -0 -0 -0 -0 -0 -0 -0 -0 -0 -0 -0 -0 -0 -0 -0 -0 -0 -0 -0 -0 -0 -0
-0 -0 -0 -0 -0 -0 -0 -0 -0 -0 -0 -0 -0 -0 -0 -0 -0 -0 -0 -0 -0 -0 -0 -0 -0 -0 -0 -0 -0 -0 -0 -0 -0 -0 -0 -0 -0 -0 -0 -0 -0 -0 -0 -0
-0 -0 -0 -0 -0 -0 -0 -0 -0 -0 -0 -0 -0 -0 -0 -0 -0 -0 -0 -0 -0 -0 -0 -0 -0 -0 -0 -0 -0 -0 -0 -0 -0 -0 -0 -0 -0 -0 -0 -0 -0 -0 -0 -0
-0 -0 -0 -0 -0 -0 -0 -0 -0 -0 -0 -0 -0 -0 -0 -0 -0 -0 -0 -0 -0 -0 -0 -0 -0 -0 -0 -0 -0 -0 -0 -0 -0 -0 -0 -0 -0 -0 -0 -0 -0 -0 -0 -0
-0 -0 -0 -0 -0 -0 -0 -0 -0 -0 -0 -0 -0 -0 -0 -0 -0 -0 -0 -0 -0 -0 -0 -0 -0 -0 -0 -0 -0 -0 -0 -0 -0 -0 -0 -0 -0 -0 -0 -0 -2 -0 -0 -0
-0 -0 -0 -0 -0 -0 -0 -0 -0 -0 -0 -0 -0 -0 -0 -0 -0 -0 -0 -0 -0 -0 -0 -0 -0 -0 -0 -0 -0 -0 -0 -0 -0 -0 -0 -0 -0 -0 -0 -0 -0 -0 -0 -0
-0 -0 -0 -0 -0 -0 -0 -0 -0 -0 -0 -0 -0 -0 -0 -0 -0 -0 -0 -0 -0 -0 -0 -0 -0 -0 -0 -0 -0 -0 -0 -0 -0 -0 -0 -0 -0 -0 -0 -0 -0 -0 -0 -0
-0 -0 -0 -0 -0 -0 -0 -0 -0 -0 -0 -0 -0 -0 -0 -0 -0 -0 -0 -0 -0 -0 -0 -0 -0 -0 -0 -0 -0 -0 -0 -0 -0 -0 -0 -0 -0 -0 -0 -0 -0 -0 -0 -0
-0 -0 -0 -0 -0 -0 -0 -0 -0 -0 -0 -0 -0 -0 -0 -0 -0 -0 -0 -0 -0 -0 -0 -0 -0 -0 -0 -0 -0 -0 -0 -0 -1 -0 -0 -0 -0 -0 -0 -0 -0 -0 -0 -0
-0 -0 -0 -0 -0 -0 -0 -0 -0 -0 -0 -0 -0 -0 -0 -0 -0 -0 -0 -0 -0 -0 -0 -0 -0 -0 -0 -0 -0 -0 -0 -0 -0 -0 -0 -0 -0 -0 -0 -0 -0 -0 -0 -0
-0 -0 -0 -0 -0 -0 -0 -0 -0 -0 -0 -0 -0 -0 -0 -0 -0 -0 -0 -0 -0 -0 -0 -0 -0 -2 -0 -0 -0 -0 -0 -0 -0 -0 -0 -0 -0 -0 -0 -0 -0 -0 -0 -0
-0 -0 -0 -0 -0 -0 -0 -0 -0 -0 -0 -0 -0 -0 -0 -0 -0 -0 -0 -0 -0 -0 -0 -0 -0 -0 -0 -0 -1 -0 -0 -0 -0 -0 -0 -0 -0 -0 -0 -0 -0 -0 -0 -0
-0 -0 -0 -0 -0 -0 -0 -0 -0 -0 -0 -0 -0 -0 -0 -0 -0 -0 -0 -0 -0 -0 -0 -0 -0 -0 -0 -0 -0 -0 -0 -0 -0 -0 -0 -0 -0 -0 -0 -0 -0 -0 -0 -0
-0 -0 -0 -0 -0 -0 -0 -0 -0 -0 -0 -0 -0 -0 -0 -0 -0 -0 -0 -0 -0 -0 -0 -0 -0 -0 -0 -0 -0 -0 -0 -0 -0 -0 -0 -0 -0 -0 -0 -0 -0 -0 -0 -0
-0 -0 -0 -0 -0 -0 -0 -0 -0 -0 -0 -0 -0 -0 -0 -0 -0 -0 -0 -0 -0 -0 -0 -0 -0 -0 -7 -0 -0 -0 -0 -0 -0 -0 -0 -0 -0 -0 -0 -0 -0 -0 -0 -0
-0 -0 -0 -0 -0 -0 -0 -0 -0 -0 -0 -0 -0 -0 -0 -0 -0 -0 -0 -0 -0 -0 -7 -0 -0 -2 -9 -0 -0 -0 -0 -0 -0 -0 -0 -0 -0 -0 -0 -0 -0 -0 -0 -0
-0 -0 -0 -0 -0 -0 -0 -0 -0 -0 -0 -0 -0 -0 -0 -0 -0 -0 -0 -0 -0 -0 -7 -0 -0 -3 -0 -0 -0 -0 -0 -0 -0 -0 -0 -0 -0 -0 -0 -0 -0 -0 -0 -0
-0 -0 -0 -0 -0 -0 -0 -0 -0 -0 -0 -0 -0 -0 -0 -0 -0 -0 -0 -0 -0 -2 -0 -0 -1 -2 -0 -0 -0 -0 -0 -0 -0 -0 -0 -0 -0 -0 -0 -0 -0 -0 -0 -0
-0 -0 -0 -0 -0 -0 -0 -0 -0 -0 -0 -0 -0 -0 -0 -0 -0 -0 -0 -0 -0 -1 -0 -0 -0 -0 -0 -0 -0 -0 -0 -0 -0 -0 -0 -0 -0 -0 -0 -0 -0 -0 -0 -0
-0 -0 -0 -0 -0 -0 -0 -1 -0 -0 -0 -0 -0 -0 -0 -0 -0 -0 -0 -0 -0 -0 -0 -0 -0 -0 -0 -0 -0 -0 -0 -0 -0 -0 -0 -0 -0 -0 -0 -0 -0 -0 -0 -0
Wind_Speed
4 6 10 12 12 12 15 25 33 24 19 22 21 23 22 21 23 24 25 26 26 27 28 29 30 30 29 30 31 31 30 30 28 27 27 28 29 26 26 25 26 27 28 29
9 9 8 11 13 12 13 14 16 18 22 21 21 17 19 19 21 22 24 26 26 28 29 30 30 29 30 29 29 28 27 27 29 27 26 28 29 28 25 25 26 27 28 29
18 20 19 18 15 11 9 11 17 21 20 20 20 17 17 19 20 22 24 26 27 27 28 29 30 31 30 30 30 29 29 28 27 28 29 29 30 31 27 26 25 26 27 27
20 19 21 16 15 13 10 12 14 15 17 20 21 20 16 20 22 24 24 25 26 27 28 28 29 30 31 30 29 28 28 29 29 29 30 30 29 30 29 25 25 25 26 26
16 15 14 18 19 21 22 17 16 18 20 21 22 19 26 23 23 23 24 26 27 28 28 28 28 29 30 29 29 27 28 29 30 30 29 29 28 29 27 28 26 26 26 26
15 14 19 20 22 21 20 22 20 20 20 21 20 21 23 25 24 25 26 26 27 28 28 28 29 30 29 30 29 30 30 31 30 30 29 28 29 28 29 30 29 26 27 27
18 14 15 20 22 21 24 26 25 23 23 23 22 23 27 26 25 25 26 26 27 28 28 28 29 30 30 30 31 33 33 32 31 31 31 30 30 29 28 28 26 27 27 28
15 16 15 20 16 17 21 23 24 24 24 25 26 26 26 26 26 26 27 26 27 27 27 28 29 29 30 31 33 33 34 34 33 32 31 31 31 31 31 29 27 27 29 28
20 18 13 12 17 17 19 22 23 25 26 27 27 27 28 28 27 27 28 28 28 27 28 28 29 29 31 33 34 34 33 34 34 33 32 31 32 33 33 32 31 31 30 30
18 18 16 16 17 11 19 22 25 25 26 26 28 28 29 29 29 29 29 29 29 29 29 30 30 31 31 33 34 34 33 33 34 34 34 32 30 30 32 33 33 33 33 32
19 19 19 15 20 23 23 21 23 25 26 27 27 28 28 29 30 31 30 30 30 31 31 32 32 32 32 33 34 33 33 33 33 33 35 35 33 32 32 32 34 34 33 32
22 21 22 24 23 22 23 24 25 25 24 25 26 27 27 28 29 30 30 31 31 31 32 32 33 33 33 34 34 33 33 32 33 33 34 35 35 36 32 32 34 35 35 33
23 20 21 27 27 23 26 24 25 25 26 26 26 26 26 28 28 29 30 30 31 32 32 32 33 34 34 34 34 33 32 33 33 32 33 35 35 35 36 33 31 30 31 31
22 24 25 22 25 26 27 27 27 26 26 26 27 27 28 28 29 29 29 29 30 31 31 31 32 33 33 34 34 33 33 32 32 33 32 35 35 36 36 35 35 33 28 26
24 21 25 27 27 27 26 27 28 28 28 28 28 28 29 30 30 30 30 29 30 30 31 31 31 32 32 33 33 34 33 33 33 33 33 34 35 35 35 34 33 32 29 23
25 26 26 26 27 27 27 28 28 29 29 29 29 29 30 30 31 31 30 30 31 32 31 31 31 32 32 32 33 32 32 32 32 32 33 33 33 33 33 33 31 30 30 29
25 28 26 28 28 29 30 29 29 30 31 31 31 31 31 31 32 32 32 31 31 32 31 30 32 32 32 32 32 32 31 31 32 31 31 32 31 32 32 31 30 29 29 28
10 12 25 30 32 33 33 32 32 32 33 32 32 32 32 32 33 33 33 31 32 32 31 31 31 30 31 31 30 31 30 30 30 30 31 30 29 29 29 28 28 28 27 26
8 5 3 18 32 33 34 35 34 34 33 33 33 33 33 33 33 32 32 33 33 33 31 31 31 31 30 30 29 30 29 29 28 28 28 28 27 27 27 27 25 24 26 26
9 10 10 10 27 32 34 34 34 34 34 33 32 32 34 33 32 33 33 33 32 31 31 31 29 31 31 29 29 30 29 28 28 27 26 26 25 25 26 26 25 23 23 23
12 14 15 17 17 22 29 31 32 32 32 31 32 32 33 33 33 33 33 33 32 31 29 29 30 31 30 26 28 29 28 27 26 26 25 25 25 24 24 24 24 23 21 21
16 18 20 23 23 23 25 27 28 29 30 31 31 32 32 33 32 32 31 32 31 30 30 29 29 30 28 25 27 27 27 26 25 24 24 24 23 24 24 23 23 22 21 20
18 21 24 25 25 26 27 28 26 26 29 31 31 31 30 31 31 31 32 30 29 30 29 28 29 30 26 25 27 27 26 25 25 24 24 22 22 22 23 22 22 23 22 20
19 21 24 26 26 27 28 27 28 29 30 29 29 28 29 30 30 29 29 30 31 31 30 28 31 31 22 26 27 27 26 26 25 24 24 23 22 22 22 22 22 23 23 22
20 21 24 25 25 24 25 28 30 30 28 28 27 27 28 28 30 32 31 30 31 31 30 30 30 30 30 29 27 27 27 26 26 24 24 23 22 23 23 23 23 22 23 23
21 23 23 24 23 24 26 28 27 26 27 27 28 29 30 30 31 31 30 30 30 31 30 31 31 30 29 28 28 27 26 26 26 26 24 23 23 23 24 23 23 23 23 24
23 24 23 23 24 25 26 26 27 26 26 28 30 30 29 31 31 32 32 31 30 30 30 30 30 31 30 29 28 28 28 26 27 26 24 24 24 23 24 24 24 24 24 25
Wind_Direction
274 296 327 304 299 284 248 243 242 237 250 255 260 265 270 277 279 281 283 286 291 292 293 294 293 293 295 293 290 290 285 283 283 282 280 276 272 268 267 267 268 270 270 269
275 286 320 322 308 295 267 258 243 246 249 268 270 273 278 282 285 286 288 291 295 295 294 294 295 294 292 292 289 290 287 285 281 281 284 280 277 268 267 268 269 269 271 270
276 268 270 265 292 292 288 285 260 251 269 283 275 276 282 288 293 293 294 296 298 301 300 298 294 291 292 290 288 286 283 284 288 288 283 282 280 273 267 266 269 269 270 273
279 280 261 264 283 276 286 292 285 280 291 292 277 260 285 291 288 289 293 297 300 302 301 300 298 294 290 290 292 289 286 286 286 286 283 281 282 277 267 268 266 269 270 271
300 283 264 273 281 270 263 272 304 283 284 284 280 259 255 293 294 292 296 298 301 299 296 295 295 293 288 287 286 290 288 287 285 284 284 283 282 278 276 271 266 268 268 270
324 301 268 276 282 279 273 259 301 300 292 290 289 264 273 289 293 297 303 302 300 299 298 297 294 292 289 285 284 284 288 286 285 282 281 282 279 283 278 277 267 268 268 268
342 323 304 297 287 281 263 264 294 298 297 294 287 287 288 291 295 297 302 305 309 308 303 301 300 298 292 289 285 285 284 286 284 281 279 280 279 283 281 279 279 271 270 271
101 340 316 312 307 287 284 290 292 295 297 295 292 293 296 296 298 301 303 305 309 307 303 302 301 299 296 293 292 289 286 282 282 282 279 280 278 276 278 280 278 279 272 273
75 94 117 131 354 324 312 300 299 297 299 298 293 295 294 294 299 303 302 302 307 306 301 300 303 300 295 295 294 292 289 283 281 281 281 280 278 277 277 276 276 277 276 274
40 50 67 59 33 337 298 313 312 310 307 305 297 299 296 298 298 297 298 298 304 302 300 301 304 305 304 302 299 293 292 287 283 279 278 278 280 280 278 274 274 275 275 274
341 349 2 40 336 305 299 283 289 301 311 310 309 307 305 302 299 298 300 303 309 302 301 304 307 304 305 304 300 296 292 290 288 282 276 275 275 278 279 278 273 273 276 276
327 339 332 316 292 278 287 291 295 294 290 296 307 311 312 309 307 303 302 304 304 304 306 307 307 306 306 310 306 303 296 293 290 286 280 275 276 274 277 279 278 274 274 276
337 348 337 313 310 331 305 281 286 291 295 293 292 291 294 300 310 312 310 309 307 303 304 306 308 307 309 311 310 308 305 297 295 292 283 276 276 275 274 277 281 283 280 274
340 331 322 334 322 317 305 298 296 285 283 287 288 293 293 294 301 303 306 309 311 310 309 309 307 304 308 307 309 307 305 300 298 295 292 279 276 273 273 273 273 277 283 280
330 340 324 317 309 306 312 308 305 302 301 299 300 300 301 301 299 298 300 298 297 300 302 303 307 306 310 310 308 304 301 299 296 294 289 284 279 275 273 272 270 272 274 279
329 322 319 317 309 311 311 307 310 306 308 307 308 308 306 303 299 298 300 302 306 303 302 304 306 306 307 310 312 310 306 304 301 295 291 286 282 277 274 271 269 268 267 266
347 320 322 311 311 308 306 310 309 306 306 307 308 309 308 306 304 301 300 302 301 301 302 303 303 306 308 311 311 311 309 307 306 302 295 291 286 278 274 272 268 265 265 266
34 14 333 315 305 304 304 308 310 309 308 309 310 309 310 309 306 304 305 307 304 301 302 304 305 311 311 312 320 317 313 311 309 305 301 296 290 283 278 273 270 265 263 264
40 23 352 343 313 309 306 305 307 308 309 309 310 308 308 307 307 308 309 307 305 302 302 306 307 310 309 311 318 319 316 314 313 309 308 301 291 283 278 272 271 269 263 262
37 30 20 10 338 317 312 311 310 310 309 309 310 310 307 307 308 308 306 303 305 305 308 307 311 310 308 310 315 318 317 318 316 313 313 307 295 281 273 270 266 267 264 261
26 23 19 15 9 357 333 323 318 316 316 315 312 311 309 309 308 308 307 305 306 307 308 310 310 308 307 311 316 317 316 317 316 316 312 308 295 284 274 270 265 263 265 262
14 12 10 7 2 357 352 343 335 328 324 321 318 315 312 311 311 310 309 306 307 306 306 307 309 306 310 314 315 315 313 313 315 318 316 307 299 283 275 271 266 262 262 261
4 3 3 1 358 353 348 343 343 339 331 326 322 320 318 316 314 312 310 310 309 307 307 307 306 304 310 313 312 310 308 309 311 313 311 310 300 291 280 278 269 263 261 261
359 0 359 359 356 352 350 349 344 339 334 331 329 327 324 322 319 318 313 311 308 306 306 307 302 301 313 309 308 304 302 303 304 308 306 306 304 294 289 283 277 268 260 260
2 0 359 358 357 357 354 348 342 340 338 336 335 334 331 327 322 317 313 310 309 308 307 305 302 302 302 302 302 301 298 297 297 303 304 303 302 293 286 283 279 275 267 264
2 0 0 0 2 359 355 351 350 349 344 341 338 335 331 328 325 322 320 315 312 307 307 306 303 300 301 300 297 296 296 293 294 295 298 300 298 291 284 282 280 278 275 269
3 3 4 4 2 359 357 356 351 351 349 344 338 337 336 331 328 322 318 316 314 311 307 305 304 300 297 296 295 293 291 291 290 289 292 294 291 289 285 282 282 279 276 272